Location: Mentone
(34.5413°N, 85.5351°W)
Time: 01:21:23
(UTC-06:00)

Cosmos 2150 Rocket - Visible Passes

Search period start: 16 December 2017 00:00
Search period end: 26 December 2017 00:00
Orbit: 749 x 808 km, 74.0° (Epoch: 15 December)

Date Brightness Start Highest point End Pass type
(mag) Time Alt. Az. Time Alt. Az. Time Alt. Az.
16 Dec 6.5 17:34:23 10° WSW 17:38:17 20° WNW 17:42:11 10° NNW visible
17 Dec 5.9 16:59:26 10° SW 17:04:14 31° WNW 17:09:02 10° N visible
20 Dec 6.6 17:02:05 10° W 17:05:16 15° WNW 17:08:27 10° NNW visible
